Home   Weather   Bakersfield   Past weeks

Flag for USA Past Weather in Bakersfield, California, USA — Yesterday and Last 2 Weeks

Now
51 °F

Light rain. Overcast.


Feels Like: 47 °F
Forecast: 48 / 55 °F
Wind: 12 mph from North

Location: Meadows Field

Current Time: Jan 19, 2017 at 2:53:26 am

Latest Report: Jan 19, 2017 at 1:54 am


Visibility: 8 mi

Pressure: 29.91 "Hg

Humidity: 86%

Dew Point: 47 °F

Location of BakersfieldLocation

Past Weather in Bakersfield — Graph

°F

Bakersfield Temperature Yesterday

Maximum temperature yesterday: 54 °F (at 11:54 am)
Minimum temperature yesterday: 38 °F (at 5:54 am)
Average temperature yesterday: 48 °F

High & Low Weather Summary for the Past Weeks

 TemperatureHumidityPressure
High76 °F (Jan 8, 1:54 pm)97% (Jan 17, 9:30 am)30.25 "Hg (Jan 17, 9:30 am)
Low34 °F (Jan 17, 4:54 am)32% (Jan 8, 5:54 pm)29.82 "Hg (Jan 12, 5:54 am)
Average51 °F76%30.06 "Hg
* Reported Jan 4 12:54 am — Jan 19 12:54 am, Bakersfield, Weather by CustomWeather, © 2017

Note: Actual official high and low records may vary slightly from our data, if they occured in-between our weather recording intervals... More about our weather records

Advertising

Bakersfield Weather History for the Previous 24 Hours

Scroll right to see more
 ConditionsComfort  
Time TempWeatherWind HumidityBarometerVisibility
12:54 am
Thu, Jan 19
48 °FOvercast.5 mph89%29.89 "Hg10 mi
11:54 pm
Wed, Jan 18
48 °FLight rain. Overcast.7 mph89%29.89 "Hg8 mi
10:54 pm49 °FPassing clouds.7 mph86%29.89 "Hg10 mi
9:54 pm49 °FPassing clouds.No wind84%29.88 "Hg10 mi
8:54 pm50 °FOvercast.3 mph80%29.90 "Hg10 mi
7:54 pm50 °FPassing clouds.6 mph77%29.92 "Hg10 mi
6:54 pm50 °FLight rain. Overcast.5 mph83%29.98 "Hg6 mi
5:54 pm51 °FLight rain. Mostly cloudy.7 mph80%30.03 "Hg7 mi
4:54 pm54 °FLight rain. Overcast.6 mph64%30.08 "Hg10 mi
3:54 pm54 °FLight rain. Mostly cloudy.13 mph67%30.10 "Hg10 mi
2:54 pm54 °FOvercast.15 mph62%30.11 "Hg10 mi
2:35 pm54 °FMostly cloudy.13 mph57%30.11 "Hg10 mi
1:54 pm54 °FOvercast.14 mph62%30.07 "Hg10 mi
12:54 pm54 °FOvercast.No wind53%30.01 "Hg10 mi
11:54 am54 °FScattered clouds.3 mph57%30.03 "Hg9 mi
10:54 am51 °FSunny.5 mph61%30.06 "Hg10 mi
9:54 am49 °FScattered clouds.5 mph69%30.11 "Hg10 mi
8:54 am46 °FPartly sunny.5 mph73%30.13 "Hg10 mi
7:54 am43 °FPassing clouds.3 mph79%30.12 "Hg10 mi
6:54 am40 °FClear.No wind80%30.11 "Hg10 mi
5:54 am38 °FClear.7 mph86%30.10 "Hg10 mi
4:54 am39 °FClear.No wind82%30.08 "Hg10 mi
3:54 am43 °FClear.5 mph76%30.09 "Hg10 mi
2:54 am44 °FClear.5 mph79%30.11 "Hg8 mi
Weather by CustomWeather, © 2017

See weather overviewHow to use our weather pages